START_TIME,STEP,MOV.,M15,t_acc.,M20,t_acc.
1979-07-15 00:00:44.150 ,7,0,0.,24.0,0.,24.0
1979-07-15 00:01:08.150 ,6,1,0.,24.0,0.,24.0
1979-07-15 00:01:32.150 ,6,0,0.,24.0,0.,24.0
1979-07-15 00:01:56.150 ,5,1,0.,24.0,0.,24.0
1979-07-15 00:02:20.150 ,5,0,0.,24.0,0.,24.0
1979-07-15 00:02:44.150 ,4,1,0.,24.0,0.,24.0
1979-07-15 00:03:08.150 ,4,0,0.,24.0,0.,24.0
1979-07-15 00:03:32.150 ,3,1,0.,24.0,0.,24.0
1979-07-15 00:03:56.150 ,3,0,0.,24.0,0.,24.0
1979-07-15 00:04:20.150 ,2,1,0.,24.0,0.,24.0
1979-07-15 00:04:44.150 ,2,0,0.,24.0,0.,24.0
1979-07-15 00:05:08.150 ,1,1,0.,24.0,0.,24.0
1979-07-15 00:05:32.150 ,1,0,0.,24.0,0.,24.0
1979-07-15 00:05:56.150 ,0,1,0.,24.0,0.,24.0
1979-07-15 00:06:20.150 ,0,0,0.,24.0,0.,24.0
1979-07-15 00:06:44.150 ,0,1,0.,24.0,0.,24.0
1979-07-15 00:07:08.150 ,0,0,0.,24.0,0.,24.0
1979-07-15 00:07:32.150 ,1,1,0.,24.0,0.,24.0
1979-07-15 00:07:56.150 ,1,0,0.,24.0,0.,24.0
1979-07-15 00:08:20.150 ,2,1,0.,24.0,0.,24.0
1979-07-15 00:08:44.150 ,2,0,0.,24.0,0.,24.0
1979-07-15 00:09:08.150 ,3,1,0.,24.0,0.,24.0
1979-07-15 00:09:32.150 ,3,0,0.,24.0,0.,24.0
1979-07-15 00:09:56.150 ,4,1,0.,24.0,0.,24.0
1979-07-15 00:10:20.150 ,4,0,0.,24.0,0.,24.0
1979-07-15 00:10:44.150 ,5,1,0.,24.0,0.,24.0
1979-07-15 00:11:08.150 ,5,0,0.,24.0,0.,24.0
1979-07-15 00:11:32.150 ,6,1,0.,24.0,0.,24.0
1979-07-15 00:11:56.150 ,6,0,0.,24.0,0.,24.0
1979-07-15 00:12:20.150 ,7,1,0.,24.0,0.,24.0
1979-07-15 00:12:44.150 ,7,0,0.,24.0,0.,24.0
1979-07-15 00:13:08.150 ,7,1,0.,24.0,0.,24.0
1979-07-15 00:13:32.150 ,7,0,0.,24.0,0.,24.0
1979-07-15 00:13:56.150 ,6,1,0.,24.0,0.,24.0
1979-07-15 00:14:20.150 ,6,0,0.,24.0,0.,24.0
1979-07-15 00:14:44.150 ,5,1,0.,24.0,0.,24.0
1979-07-15 00:15:08.150 ,5,0,0.,24.0,0.,24.0
1979-07-15 00:15:32.150 ,4,1,0.,24.0,0.,24.0
1979-07-15 00:15:56.150 ,4,0,0.,24.0,0.,24.0
1979-07-15 00:16:20.150 ,0,0,0.,24.0,0.,24.0
1979-07-15 00:16:44.150 ,0,0,0.,24.0,0.,24.0
1979-07-15 00:17:08.150 ,0,0,0.,24.0,0.,24.0
1979-07-15 00:17:32.150 ,7,0,0.,24.0,0.,24.0
1979-07-15 00:17:56.150 ,7,0,1.,24.0,0.,24.0
1979-07-15 00:18:20.150 ,7,0,0.,24.0,0.,24.0
1979-07-15 00:18:44.150 ,7,0,0.,24.0,0.,24.0
1979-07-15 00:19:08.150 ,7,0,0.,24.0,0.,24.0
1979-07-15 00:19:32.150 ,3,1,0.,24.0,0.,24.0
1979-07-15 00:19:56.150 ,0,1,0.,24.0,0.,24.0
1979-07-15 00:20:20.150 ,4,1,0.,24.0,0.,24.0
1979-07-15 00:20:44.150 ,7,1,0.,24.0,0.,24.0
1979-07-15 00:21:08.150 ,3,1,0.,24.0,0.,24.0
1979-07-15 00:21:32.150 ,0,1,0.,24.0,0.,24.0
1979-07-15 00:21:56.150 ,4,1,0.,24.0,0.,24.0
1979-07-15 00:22:20.150 ,7,1,0.,24.0,0.,24.0
1979-07-15 00:22:44.150 ,3,1,0.,24.0,0.,24.0
1979-07-15 00:23:08.150 ,0,1,0.,24.0,0.,24.0
1979-07-15 00:23:32.150 ,4,1,0.,24.0,0.,24.0
1979-07-15 00:23:56.150 ,7,1,0.,24.0,0.,24.0
1979-07-15 00:24:20.150 ,3,1,0.,24.0,0.,24.0
1979-07-15 00:24:44.150 ,0,1,0.,24.0,0.,24.0
1979-07-15 00:25:08.150 ,4,1,0.,24.0,0.,24.0
1979-07-15 00:25:32.150 ,7,1,0.,24.0,0.,24.0
1979-07-15 00:25:56.150 ,3,1,0.,24.0,0.,24.0
1979-07-15 00:26:20.150 ,0,1,0.,24.0,0.,24.0
1979-07-15 00:26:44.150 ,4,1,0.,24.0,0.,24.0
1979-07-15 00:27:08.150 ,7,1,0.,24.0,0.,24.0
1979-07-15 00:27:32.150 ,3,1,0.,24.0,0.,24.0
1979-07-15 00:27:56.150 ,0,1,0.,24.0,0.,24.0
1979-07-15 00:28:20.150 ,4,1,0.,24.0,0.,24.0
1979-07-15 00:28:44.150 ,7,1,0.,24.0,0.,24.0
1979-07-15 00:29:08.150 ,3,1,0.,24.0,0.,24.0
1979-07-15 00:29:32.150 ,0,1,0.,24.0,0.,24.0
1979-07-15 00:29:56.150 ,0,0,0.,24.0,0.,24.0
1979-07-15 00:30:20.150 ,0,0,0.,24.0,0.,24.0
1979-07-15 00:30:44.150 ,5,1,0.,24.0,0.,24.0
1979-07-15 00:31:08.150 ,5,0,0.,24.0,0.,24.0
1979-07-15 00:31:32.150 ,4,1,0.,24.0,0.,24.0
1979-07-15 00:31:56.150 ,4,0,0.,24.0,0.,24.0
1979-07-15 00:32:20.150 ,3,1,0.,24.0,0.,24.0
1979-07-15 00:32:44.150 ,0,0,,0,,0
1979-07-15 00:33:02.750 ,0,0,0.,24.0,0.,24.0
1979-07-15 00:33:08.150 ,2,1,0.,24.0,0.,24.0
1979-07-15 00:33:32.150 ,2,0,0.,24.0,0.,24.0
1979-07-15 00:33:56.150 ,1,1,0.,24.0,0.,24.0
1979-07-15 00:34:20.150 ,1,0,0.,24.0,0.,24.0
1979-07-15 00:34:44.150 ,0,1,0.,24.0,0.,24.0
1979-07-15 00:35:08.150 ,0,0,0.,24.0,0.,24.0
1979-07-15 00:35:32.150 ,0,1,0.,24.0,0.,24.0
1979-07-15 00:35:56.150 ,0,0,0.,24.0,0.,24.0
1979-07-15 00:36:20.150 ,1,1,0.,24.0,0.,24.0
1979-07-15 00:36:44.150 ,1,0,0.,24.0,0.,24.0
1979-07-15 00:37:08.150 ,2,1,0.,24.0,0.,24.0
1979-07-15 00:37:32.150 ,2,0,0.,24.0,0.,24.0
1979-07-15 00:37:56.150 ,3,1,0.,24.0,0.,24.0
1979-07-15 00:38:20.150 ,3,0,0.,24.0,0.,24.0
1979-07-15 00:38:44.150 ,4,1,0.,24.0,0.,24.0
1979-07-15 00:39:08.150 ,4,0,0.,24.0,0.,24.0
1979-07-15 00:39:32.150 ,5,1,0.,24.0,0.,24.0
1979-07-15 00:39:56.150 ,5,0,0.,24.0,0.,24.0
1979-07-15 00:40:20.150 ,6,1,0.,24.0,0.,24.0
1979-07-15 00:40:44.150 ,6,0,0.,24.0,0.,24.0
1979-07-15 00:41:08.150 ,7,1,0.,24.0,0.,24.0
1979-07-15 00:41:32.150 ,7,0,0.,24.0,0.,24.0
1979-07-15 00:41:56.150 ,7,1,0.,24.0,0.,24.0
1979-07-15 00:42:20.150 ,7,0,0.,24.0,0.,24.0
1979-07-15 00:42:44.150 ,6,1,0.,24.0,0.,24.0
1979-07-15 00:43:08.150 ,6,0,0.,24.0,0.,24.0
1979-07-15 00:43:32.150 ,5,1,0.,24.0,0.,24.0
1979-07-15 00:43:56.150 ,5,0,0.,24.0,0.,24.0
1979-07-15 00:44:20.150 ,4,1,0.,24.0,0.,24.0
1979-07-15 00:44:44.150 ,4,0,0.,24.0,0.,24.0
1979-07-15 00:45:08.150 ,3,1,0.,24.0,0.,24.0
1979-07-15 00:45:32.150 ,3,0,0.,24.0,0.,24.0
1979-07-15 00:45:56.150 ,2,1,0.,24.0,0.,24.0
1979-07-15 00:46:20.150 ,2,0,0.,24.0,0.,24.0
1979-07-15 00:46:44.150 ,1,1,0.,24.0,0.,24.0
1979-07-15 00:47:08.150 ,1,0,0.,24.0,0.,24.0
1979-07-15 00:47:32.150 ,0,1,0.,24.0,0.,24.0
1979-07-15 00:47:56.150 ,0,0,0.,24.0,0.,24.0
1979-07-15 00:48:20.150 ,0,1,0.,24.0,0.,24.0
1979-07-15 00:48:44.150 ,0,0,0.,24.0,0.,24.0
1979-07-15 00:49:08.150 ,1,1,0.,24.0,0.,24.0
1979-07-15 00:49:32.150 ,1,0,0.,24.0,0.,24.0
1979-07-15 00:49:56.150 ,2,1,0.,24.0,0.,24.0
1979-07-15 00:50:20.150 ,2,0,0.,24.0,0.,24.0
1979-07-15 00:50:44.150 ,3,1,0.,24.0,0.,24.0
1979-07-15 00:51:08.150 ,3,0,0.,24.0,0.,24.0
1979-07-15 00:51:32.150 ,4,1,0.,24.0,0.,24.0
1979-07-15 00:51:56.150 ,4,0,0.,24.0,0.,24.0
1979-07-15 00:52:20.150 ,5,1,0.,24.0,0.,24.0
1979-07-15 00:52:44.150 ,5,0,0.,24.0,0.,24.0
1979-07-15 00:53:08.150 ,6,1,0.,24.0,0.,24.0
1979-07-15 00:53:32.150 ,6,0,0.,24.0,0.,24.0
1979-07-15 00:53:56.150 ,7,1,0.,24.0,0.,24.0
1979-07-15 00:54:20.150 ,7,0,0.,24.0,0.,24.0
1979-07-15 00:54:44.150 ,7,1,0.,24.0,0.,24.0
1979-07-15 00:55:08.150 ,7,0,0.,24.0,0.,24.0
1979-07-15 00:55:32.150 ,6,1,0.,24.0,0.,24.0
1979-07-15 00:55:56.150 ,6,0,0.,24.0,0.,24.0
1979-07-15 00:56:20.150 ,5,1,0.,24.0,0.,24.0
1979-07-15 00:56:44.150 ,5,0,0.,24.0,0.,24.0
1979-07-15 00:57:08.150 ,4,1,0.,24.0,0.,24.0
1979-07-15 00:57:32.150 ,4,0,0.,24.0,0.,24.0
1979-07-15 00:57:56.150 ,3,1,0.,24.0,0.,24.0
1979-07-15 00:58:20.150 ,3,0,0.,24.0,0.,24.0
1979-07-15 00:58:44.150 ,2,1,0.,24.0,0.,24.0
1979-07-15 00:59:08.150 ,2,0,0.,24.0,0.,24.0
1979-07-15 00:59:32.150 ,1,1,0.,24.0,0.,24.0
1979-07-15 00:59:56.150 ,1,0,0.,24.0,0.,24.0
1979-07-15 01:00:20.150 ,0,1,0.,24.0,0.,24.0
1979-07-15 01:00:44.150 ,0,0,0.,24.0,0.,24.0
1979-07-15 01:01:08.150 ,0,1,0.,24.0,0.,24.0
1979-07-15 01:01:32.150 ,0,0,0.,24.0,0.,24.0
1979-07-15 01:01:56.150 ,1,1,0.,24.0,0.,24.0
1979-07-15 01:02:20.150 ,1,0,0.,24.0,0.,24.0
1979-07-15 01:02:44.150 ,2,1,0.,24.0,0.,24.0
1979-07-15 01:03:08.150 ,2,0,0.,24.0,0.,24.0
1979-07-15 01:03:32.150 ,3,1,0.,24.0,0.,24.0
1979-07-15 01:03:56.150 ,3,0,0.,24.0,0.,24.0
1979-07-15 01:04:20.150 ,4,1,0.,24.0,0.,24.0
1979-07-15 01:04:44.150 ,4,0,0.,24.0,0.,24.0
1979-07-15 01:05:08.150 ,5,1,0.,24.0,0.,24.0
1979-07-15 01:05:32.150 ,5,0,0.,24.0,0.,24.0
1979-07-15 01:05:56.150 ,6,1,0.,24.0,0.,24.0
1979-07-15 01:06:20.150 ,6,0,0.,24.0,0.,24.0
1979-07-15 01:06:44.150 ,7,0,0.,24.0,0.,24.0
1979-07-15 01:07:08.150 ,7,0,0.,24.0,0.,24.0
1979-07-15 01:07:32.150 ,3,1,0.,24.0,0.,24.0
1979-07-15 01:07:56.150 ,0,1,0.,24.0,0.,24.0
1979-07-15 01:08:20.150 ,4,1,0.,24.0,0.,24.0
1979-07-15 01:08:44.150 ,7,1,0.,24.0,0.,24.0
1979-07-15 01:09:08.150 ,3,1,0.,24.0,0.,24.0
1979-07-15 01:09:32.150 ,0,1,0.,24.0,0.,24.0
1979-07-15 01:09:56.150 ,4,1,0.,24.0,0.,24.0
1979-07-15 01:10:20.150 ,7,1,0.,24.0,0.,24.0
1979-07-15 01:10:44.150 ,3,1,0.,24.0,0.,24.0
1979-07-15 01:11:08.150 ,0,1,0.,24.0,0.,24.0
1979-07-15 01:11:32.150 ,4,1,0.,24.0,0.,24.0
1979-07-15 01:11:56.150 ,7,1,0.,24.0,0.,24.0
1979-07-15 01:12:20.150 ,3,1,0.,24.0,0.,24.0
1979-07-15 01:12:44.150 ,0,1,0.,24.0,0.,24.0
1979-07-15 01:13:08.150 ,4,1,0.,24.0,0.,24.0
1979-07-15 01:13:32.150 ,7,1,0.,24.0,0.,24.0
1979-07-15 01:13:56.150 ,3,1,0.,24.0,0.,24.0
1979-07-15 01:14:20.150 ,0,1,0.,24.0,0.,24.0
1979-07-15 01:14:44.150 ,4,1,0.,24.0,0.,24.0
1979-07-15 01:15:08.150 ,7,1,0.,24.0,0.,24.0
1979-07-15 01:15:32.150 ,3,1,0.,24.0,0.,24.0
1979-07-15 01:15:56.150 ,0,1,0.,24.0,0.,24.0
1979-07-15 01:16:20.150 ,4,1,0.,24.0,0.,24.0
1979-07-15 01:16:44.150 ,7,1,0.,24.0,0.,24.0
1979-07-15 01:17:08.150 ,3,1,0.,24.0,0.,24.0
1979-07-15 01:17:32.150 ,0,1,0.,24.0,0.,24.0
1979-07-15 01:17:56.150 ,0,0,0.,24.0,0.,24.0
1979-07-15 01:18:20.150 ,0,0,0.,24.0,0.,24.0
1979-07-15 01:18:44.150 ,5,1,0.,24.0,0.,24.0
1979-07-15 01:19:08.150 ,5,0,0.,24.0,0.,24.0
1979-07-15 01:19:32.150 ,4,1,0.,24.0,0.,24.0
1979-07-15 01:19:56.150 ,4,0,0.,24.0,0.,24.0
1979-07-15 01:20:20.150 ,3,1,0.,24.0,0.,24.0
1979-07-15 01:20:44.150 ,3,0,0.,24.0,0.,24.0
1979-07-15 01:21:08.150 ,2,1,0.,24.0,0.,24.0
1979-07-15 01:21:32.150 ,2,0,0.,24.0,0.,24.0
1979-07-15 01:21:56.150 ,1,1,0.,24.0,0.,24.0
1979-07-15 01:22:20.150 ,1,0,0.,24.0,0.,24.0
1979-07-15 01:22:44.150 ,0,1,0.,24.0,0.,24.0
1979-07-15 01:23:08.150 ,0,0,0.,24.0,0.,24.0
1979-07-15 01:23:32.150 ,0,1,0.,24.0,0.,24.0
1979-07-15 01:23:56.150 ,0,0,0.,24.0,0.,24.0
1979-07-15 01:24:20.150 ,1,1,0.,24.0,0.,24.0
1979-07-15 01:24:44.150 ,1,0,0.,24.0,0.,24.0
1979-07-15 01:25:08.150 ,2,1,0.,24.0,0.,24.0
1979-07-15 01:25:32.150 ,2,0,0.,24.0,0.,24.0
1979-07-15 01:25:56.150 ,3,1,0.,24.0,0.,24.0
1979-07-15 01:26:20.150 ,3,0,0.,24.0,0.,24.0
1979-07-15 01:26:44.150 ,4,1,0.,24.0,0.,24.0
1979-07-15 01:27:08.150 ,4,0,0.,24.0,0.,24.0
1979-07-15 01:27:32.150 ,5,1,0.,24.0,0.,24.0
1979-07-15 01:27:56.150 ,5,0,0.,24.0,0.,24.0
1979-07-15 01:28:20.150 ,6,1,0.,24.0,0.,24.0
1979-07-15 01:28:44.150 ,6,0,0.,24.0,0.,24.0
1979-07-15 01:29:08.150 ,7,1,0.,24.0,0.,24.0
1979-07-15 01:29:32.150 ,7,0,0.,24.0,0.,24.0
1979-07-15 01:29:56.150 ,7,1,0.,24.0,0.,24.0
1979-07-15 01:30:20.150 ,7,0,0.,24.0,0.,24.0
1979-07-15 01:30:44.150 ,6,1,0.,24.0,0.,24.0
1979-07-15 01:31:08.150 ,6,0,0.,24.0,0.,24.0
1979-07-15 01:31:32.150 ,5,1,0.,24.0,0.,24.0
1979-07-15 01:31:56.150 ,5,0,0.,24.0,0.,24.0
1979-07-15 01:32:20.150 ,4,1,0.,24.0,0.,24.0
1979-07-15 01:32:44.150 ,4,0,0.,24.0,0.,24.0
1979-07-15 01:33:08.150 ,3,1,0.,24.0,0.,24.0
1979-07-15 01:33:32.150 ,3,0,0.,24.0,0.,24.0
1979-07-15 01:33:56.150 ,2,1,0.,24.0,0.,24.0
1979-07-15 01:34:20.150 ,2,0,0.,24.0,0.,24.0
1979-07-15 01:34:44.150 ,1,1,0.,24.0,0.,24.0
1979-07-15 01:35:08.150 ,1,0,0.,24.0,0.,24.0
1979-07-15 01:35:32.150 ,0,1,0.,24.0,0.,24.0
1979-07-15 01:35:56.150 ,0,0,0.,24.0,0.,24.0
1979-07-15 01:36:20.150 ,0,1,0.,24.0,0.,24.0
1979-07-15 01:36:44.150 ,0,0,0.,24.0,0.,24.0
1979-07-15 01:37:08.150 ,1,1,0.,24.0,0.,24.0
1979-07-15 01:37:32.150 ,1,0,1.,24.0,0.,24.0
1979-07-15 01:37:56.150 ,2,1,0.,24.0,0.,24.0
1979-07-15 01:38:20.150 ,2,0,0.,24.0,0.,24.0
1979-07-15 01:38:44.150 ,3,1,0.,24.0,0.,24.0
1979-07-15 01:39:08.150 ,3,0,0.,24.0,0.,24.0
1979-07-15 01:39:32.150 ,4,1,0.,24.0,0.,24.0
1979-07-15 01:39:56.150 ,4,0,0.,24.0,0.,24.0
1979-07-15 01:40:20.150 ,5,1,0.,24.0,0.,24.0
1979-07-15 01:40:44.150 ,5,0,0.,24.0,0.,24.0
1979-07-15 01:41:08.150 ,6,1,0.,24.0,0.,24.0
1979-07-15 01:41:32.150 ,6,0,0.,24.0,0.,24.0
1979-07-15 01:41:56.150 ,7,1,0.,24.0,0.,24.0
1979-07-15 01:42:20.150 ,7,0,0.,24.0,0.,24.0
1979-07-15 01:42:44.150 ,7,1,0.,24.0,0.,24.0
1979-07-15 01:43:08.150 ,7,0,0.,24.0,0.,24.0
1979-07-15 01:43:32.150 ,6,1,0.,24.0,0.,24.0
1979-07-15 01:43:56.150 ,6,0,0.,24.0,0.,24.0
1979-07-15 01:44:20.150 ,5,1,0.,24.0,0.,24.0
1979-07-15 01:44:44.150 ,5,0,0.,24.0,0.,24.0
1979-07-15 01:45:08.150 ,4,1,0.,24.0,0.,24.0
1979-07-15 01:45:32.150 ,4,0,0.,24.0,0.,24.0
1979-07-15 01:45:56.150 ,3,1,0.,24.0,0.,24.0
1979-07-15 01:46:20.150 ,3,0,0.,24.0,0.,24.0
1979-07-15 01:46:44.150 ,2,1,0.,24.0,0.,24.0
1979-07-15 01:47:08.150 ,2,0,0.,24.0,0.,24.0
1979-07-15 01:47:32.150 ,1,1,0.,24.0,0.,24.0
1979-07-15 01:47:56.150 ,1,0,0.,24.0,0.,24.0
1979-07-15 01:48:20.150 ,0,1,0.,24.0,0.,24.0
1979-07-15 01:48:44.150 ,0,0,0.,24.0,0.,24.0
1979-07-15 01:49:08.150 ,0,1,0.,24.0,0.,24.0
1979-07-15 01:49:32.150 ,0,0,0.,24.0,0.,24.0
1979-07-15 01:49:56.150 ,1,1,0.,24.0,0.,24.0
1979-07-15 01:50:20.150 ,1,0,0.,24.0,0.,24.0
1979-07-15 01:50:44.150 ,2,1,0.,24.0,0.,24.0
1979-07-15 01:51:08.150 ,2,0,0.,24.0,0.,24.0
1979-07-15 01:51:32.150 ,3,1,0.,24.0,0.,24.0
1979-07-15 01:51:56.150 ,3,0,0.,24.0,0.,24.0
1979-07-15 01:52:20.150 ,4,1,0.,24.0,0.,24.0
1979-07-15 01:52:44.150 ,4,0,0.,24.0,0.,24.0
1979-07-15 01:53:08.150 ,5,1,0.,24.0,0.,24.0
1979-07-15 01:53:32.150 ,5,0,0.,24.0,0.,24.0
1979-07-15 01:53:56.150 ,6,1,0.,24.0,0.,24.0
1979-07-15 01:54:20.150 ,6,0,0.,24.0,0.,24.0
1979-07-15 01:54:44.150 ,7,0,0.,24.0,0.,24.0
1979-07-15 01:55:08.150 ,7,0,0.,24.0,0.,24.0
1979-07-15 01:55:32.150 ,3,1,0.,24.0,0.,24.0
1979-07-15 01:55:56.150 ,0,1,0.,24.0,0.,24.0
1979-07-15 01:56:20.150 ,4,1,0.,24.0,0.,24.0
1979-07-15 01:56:44.150 ,7,1,0.,24.0,0.,24.0
1979-07-15 01:57:08.150 ,3,1,0.,24.0,0.,24.0
1979-07-15 01:57:32.150 ,0,1,0.,24.0,0.,24.0
1979-07-15 01:57:56.150 ,4,1,0.,24.0,0.,24.0
1979-07-15 01:58:20.150 ,7,1,0.,24.0,0.,24.0
1979-07-15 01:58:44.150 ,3,1,0.,24.0,0.,24.0
1979-07-15 01:59:08.150 ,0,1,0.,24.0,0.,24.0
1979-07-15 01:59:32.150 ,4,1,0.,24.0,0.,24.0
1979-07-15 01:59:56.150 ,7,1,0.,24.0,0.,24.0
1979-07-15 02:00:20.150 ,3,1,0.,24.0,0.,24.0
1979-07-15 02:00:44.150 ,0,1,0.,24.0,0.,24.0
1979-07-15 02:01:08.150 ,4,1,0.,24.0,0.,24.0
1979-07-15 02:01:32.150 ,7,1,0.,24.0,0.,24.0
1979-07-15 02:01:56.150 ,3,1,0.,24.0,0.,24.0
1979-07-15 02:02:20.150 ,0,1,0.,24.0,0.,24.0
1979-07-15 02:02:44.150 ,4,1,0.,24.0,0.,24.0
1979-07-15 02:03:08.150 ,7,1,0.,24.0,0.,24.0
1979-07-15 02:03:32.150 ,3,1,0.,24.0,0.,24.0
1979-07-15 02:03:56.150 ,0,1,0.,24.0,0.,24.0
1979-07-15 02:04:20.150 ,4,1,0.,24.0,0.,24.0
1979-07-15 02:04:44.150 ,7,1,0.,24.0,0.,24.0
1979-07-15 02:05:08.140 ,3,1,0.,24.0,0.,24.0
1979-07-15 02:05:32.150 ,0,1,0.,24.0,0.,24.0
1979-07-15 02:05:56.150 ,0,0,0.,24.0,0.,24.0
1979-07-15 02:06:20.150 ,0,0,0.,24.0,0.,24.0
1979-07-15 02:06:44.150 ,5,1,0.,24.0,0.,24.0
1979-07-15 02:07:08.140 ,5,0,0.,24.0,0.,24.0
1979-07-15 02:07:32.150 ,4,1,0.,24.0,0.,24.0
1979-07-15 02:07:56.150 ,4,0,0.,24.0,0.,24.0
1979-07-15 02:08:20.140 ,3,1,0.,24.0,0.,24.0
1979-07-15 02:08:44.150 ,3,0,0.,24.0,0.,24.0
1979-07-15 02:09:08.150 ,2,1,0.,24.0,0.,24.0
1979-07-15 02:09:32.150 ,2,0,0.,24.0,0.,24.0
1979-07-15 02:09:56.150 ,1,1,0.,24.0,0.,24.0
1979-07-15 02:10:20.150 ,1,0,0.,24.0,0.,24.0
1979-07-15 02:10:44.150 ,0,1,0.,24.0,0.,24.0
1979-07-15 02:11:08.150 ,0,0,0.,24.0,0.,24.0
1979-07-15 02:11:32.150 ,0,1,0.,24.0,0.,24.0
1979-07-15 02:11:56.150 ,0,0,0.,24.0,0.,24.0
1979-07-15 02:12:20.140 ,1,1,0.,24.0,0.,24.0
1979-07-15 02:12:44.140 ,1,0,0.,24.0,0.,24.0
1979-07-15 02:13:08.140 ,2,1,0.,24.0,0.,24.0
1979-07-15 02:13:32.140 ,2,0,0.,24.0,0.,24.0
1979-07-15 02:13:56.140 ,3,1,0.,24.0,0.,24.0
1979-07-15 02:14:20.140 ,3,0,0.,24.0,0.,24.0
1979-07-15 02:14:44.140 ,4,1,0.,24.0,0.,24.0
1979-07-15 02:15:08.140 ,4,0,0.,24.0,0.,24.0
1979-07-15 02:15:32.140 ,5,1,0.,24.0,0.,24.0
1979-07-15 02:15:56.140 ,5,0,0.,24.0,0.,24.0
1979-07-15 02:16:20.140 ,6,1,0.,24.0,0.,24.0
1979-07-15 02:16:44.140 ,6,0,0.,24.0,0.,24.0
1979-07-15 02:17:08.140 ,7,1,0.,24.0,0.,24.0
1979-07-15 02:17:32.140 ,7,0,0.,24.0,0.,24.0
1979-07-15 02:17:56.140 ,7,1,0.,24.0,0.,24.0
1979-07-15 02:18:20.140 ,7,0,0.,24.0,0.,24.0
1979-07-15 02:18:44.140 ,6,1,0.,24.0,0.,24.0
1979-07-15 02:19:08.140 ,6,0,0.,24.0,0.,24.0
1979-07-15 02:19:32.140 ,5,1,0.,24.0,0.,24.0
1979-07-15 02:19:56.140 ,5,0,0.,24.0,0.,24.0
1979-07-15 02:20:20.140 ,4,1,0.,24.0,0.,24.0
1979-07-15 02:20:44.140 ,4,0,0.,24.0,0.,24.0
1979-07-15 02:21:08.140 ,3,1,0.,24.0,0.,24.0
1979-07-15 02:21:32.140 ,3,0,0.,24.0,0.,24.0
1979-07-15 02:21:56.140 ,2,1,0.,24.0,0.,24.0
1979-07-15 02:22:20.140 ,2,0,0.,24.0,0.,24.0
1979-07-15 02:22:44.140 ,1,1,0.,24.0,0.,24.0
1979-07-15 02:23:08.140 ,1,0,0.,24.0,0.,24.0
1979-07-15 02:23:32.140 ,0,1,0.,24.0,0.,24.0
1979-07-15 02:23:56.140 ,0,0,0.,24.0,0.,24.0
1979-07-15 02:24:20.140 ,0,1,0.,24.0,0.,24.0
1979-07-15 02:24:44.140 ,0,0,0.,24.0,0.,24.0
1979-07-15 02:25:08.140 ,1,1,0.,24.0,0.,24.0
1979-07-15 02:25:32.140 ,1,0,0.,24.0,0.,24.0
1979-07-15 02:25:56.140 ,2,1,0.,24.0,0.,24.0
1979-07-15 02:26:20.140 ,2,0,0.,24.0,0.,24.0
1979-07-15 02:26:44.140 ,3,1,0.,24.0,0.,24.0
1979-07-15 02:27:08.140 ,3,0,0.,24.0,0.,24.0
1979-07-15 02:27:32.140 ,4,1,0.,24.0,0.,24.0
1979-07-15 02:27:56.140 ,4,0,0.,24.0,0.,24.0
1979-07-15 02:28:20.140 ,5,1,0.,24.0,0.,24.0
1979-07-15 02:28:44.140 ,5,0,0.,24.0,0.,24.0
1979-07-15 02:29:08.140 ,6,1,0.,24.0,0.,24.0
1979-07-15 02:29:32.140 ,6,0,0.,24.0,0.,24.0
1979-07-15 02:29:56.140 ,7,1,0.,24.0,0.,24.0
1979-07-15 02:30:20.140 ,7,0,0.,24.0,0.,24.0
1979-07-15 02:30:44.140 ,7,1,0.,24.0,0.,24.0
1979-07-15 02:31:08.140 ,7,0,0.,24.0,0.,24.0
1979-07-15 02:31:32.140 ,6,1,0.,24.0,0.,24.0
1979-07-15 02:31:56.140 ,6,0,0.,24.0,0.,24.0
1979-07-15 02:32:20.140 ,5,1,0.,24.0,0.,24.0
1979-07-15 02:32:44.140 ,5,0,0.,24.0,0.,24.0
1979-07-15 02:33:08.140 ,4,1,0.,24.0,0.,24.0
1979-07-15 02:33:32.140 ,4,0,0.,24.0,0.,24.0
1979-07-15 02:33:56.140 ,3,1,0.,24.0,0.,24.0
1979-07-15 02:34:20.140 ,3,0,0.,24.0,0.,24.0
1979-07-15 02:34:44.140 ,2,1,0.,24.0,0.,24.0
1979-07-15 02:35:08.140 ,2,0,0.,24.0,0.,24.0
1979-07-15 02:35:32.140 ,1,1,0.,24.0,0.,24.0
1979-07-15 02:35:56.140 ,1,0,0.,24.0,0.,24.0
1979-07-15 02:36:20.140 ,0,1,0.,24.0,0.,24.0
1979-07-15 02:36:44.140 ,0,0,0.,24.0,0.,24.0
1979-07-15 02:37:08.140 ,0,1,0.,24.0,0.,24.0
1979-07-15 02:37:32.140 ,0,0,0.,24.0,0.,24.0
1979-07-15 02:37:56.140 ,1,1,0.,24.0,0.,24.0
1979-07-15 02:38:20.140 ,1,0,0.,24.0,0.,24.0
1979-07-15 02:38:44.140 ,2,1,0.,24.0,0.,24.0
1979-07-15 02:39:08.140 ,2,0,0.,24.0,0.,24.0
1979-07-15 02:39:32.140 ,3,1,0.,24.0,0.,24.0
1979-07-15 02:39:56.140 ,3,0,0.,24.0,0.,24.0
1979-07-15 02:40:20.140 ,4,1,0.,24.0,0.,24.0
1979-07-15 02:40:44.140 ,4,0,0.,24.0,0.,24.0
1979-07-15 02:40:44.140 ,4,0,0.,24.0,0.,24.0
1979-07-15 02:41:08.140 ,5,1,0.,24.0,0.,24.0
1979-07-15 02:41:32.140 ,5,0,0.,24.0,0.,24.0
1979-07-15 02:41:56.140 ,6,1,0.,24.0,0.,24.0
1979-07-15 02:42:20.140 ,6,0,0.,24.0,0.,24.0
1979-07-15 02:42:44.140 ,7,0,0.,24.0,0.,24.0
1979-07-15 02:43:08.140 ,7,0,0.,24.0,0.,24.0
1979-07-15 02:43:32.140 ,3,1,0.,24.0,0.,24.0
1979-07-15 02:43:56.140 ,0,1,0.,24.0,0.,24.0
1979-07-15 02:44:20.140 ,4,1,0.,24.0,0.,24.0
1979-07-15 02:44:44.140 ,7,1,0.,24.0,0.,24.0
1979-07-15 02:45:08.140 ,3,1,0.,24.0,0.,24.0
1979-07-15 02:45:32.140 ,0,1,0.,24.0,0.,24.0
1979-07-15 02:45:56.140 ,4,1,0.,24.0,0.,24.0
1979-07-15 02:46:20.140 ,7,1,0.,24.0,0.,24.0
1979-07-15 02:46:44.140 ,3,1,0.,24.0,0.,24.0
1979-07-15 02:47:08.140 ,0,1,0.,24.0,0.,24.0
1979-07-15 02:47:32.140 ,4,1,0.,24.0,0.,24.0
1979-07-15 02:47:56.140 ,7,1,0.,24.0,0.,24.0
1979-07-15 02:48:20.140 ,3,1,0.,24.0,0.,24.0
1979-07-15 02:48:44.140 ,0,1,0.,24.0,0.,24.0
1979-07-15 02:49:08.140 ,4,1,0.,24.0,0.,24.0
1979-07-15 02:49:32.140 ,7,1,0.,24.0,0.,24.0
1979-07-15 02:49:56.140 ,3,1,0.,24.0,0.,24.0
1979-07-15 02:50:20.140 ,0,1,0.,24.0,0.,24.0
1979-07-15 02:50:44.140 ,4,1,0.,24.0,0.,24.0
1979-07-15 02:51:08.140 ,7,1,0.,24.0,0.,24.0
1979-07-15 02:51:32.140 ,3,1,0.,24.0,0.,24.0
1979-07-15 02:51:56.140 ,0,1,0.,24.0,0.,24.0
1979-07-15 02:52:20.140 ,4,1,0.,24.0,0.,24.0
1979-07-15 02:52:44.140 ,7,1,0.,24.0,0.,24.0
1979-07-15 02:53:08.140 ,3,1,0.,24.0,0.,24.0
1979-07-15 02:53:32.140 ,0,1,0.,24.0,0.,24.0
1979-07-15 02:53:56.140 ,0,0,0.,24.0,0.,24.0
1979-07-15 02:54:20.140 ,0,0,0.,24.0,0.,24.0
1979-07-15 02:55:08.140 ,5,0,0.,24.0,0.,24.0
1979-07-15 02:55:32.140 ,4,1,0.,24.0,0.,24.0
1979-07-15 02:55:56.140 ,4,0,0.,24.0,0.,24.0
1979-07-15 02:56:20.140 ,3,1,0.,24.0,0.,24.0
1979-07-15 02:56:44.140 ,3,0,0.,24.0,0.,24.0
1979-07-15 02:57:08.140 ,2,1,0.,24.0,0.,24.0
1979-07-15 02:57:32.140 ,2,0,0.,24.0,0.,24.0
1979-07-15 02:57:56.140 ,1,1,0.,24.0,0.,24.0
1979-07-15 02:58:20.140 ,1,0,0.,24.0,0.,24.0
1979-07-15 02:58:44.140 ,0,1,0.,24.0,0.,24.0
1979-07-15 02:59:08.140 ,0,0,0.,24.0,0.,24.0
1979-07-15 02:59:32.140 ,0,1,0.,24.0,0.,24.0
1979-07-15 02:59:56.140 ,0,0,0.,24.0,0.,24.0
1979-07-15 03:00:20.140 ,1,1,0.,24.0,0.,24.0
